Wetbulb
53.72 53.70 53.72 53.72 53.53 53.57 53.62 53.68 53.69 53.64 53.69 53.99 53.80 53.73 53.74 53.43 53.46 47.55 42.63 47.29 49.86 56.23 56.16 51.87 51.67 52.35 47.36 44.54 46.48 46.21 37.52 33.91 37.39 38.12 41.42 42.88 40.22 43.70 46.49 45.36 48.25 49.37 57.05 67.31 71.80
53.52 53.42 53.45 53.39 53.33 53.46 53.43 53.56 53.61 53.79 53.78 53.37 53.27 53.07 52.78 53.28 47.49 43.71 50.20 54.91 55.91 57.21 50.29 48.05 46.64 48.01 42.64 41.81 43.93 42.75 36.29 39.06 42.97 45.31 40.62 43.69 43.31 43.95 46.59 46.83 47.53 48.81 52.42 70.07 71.61
53.03 53.01 52.99 52.99 53.10 53.09 53.34 53.47 53.76 54.16 53.85 53.46 53.23 52.99 52.87 51.69 39.35 40.37 57.85 60.29 60.56 58.65 53.20 50.00 49.24 47.33 40.86 39.14 40.90 41.36 41.18 45.26 44.68 46.87 46.84 44.06 45.70 47.52 45.50 44.63 46.86 46.22 49.55 69.02 70.01
52.81 52.84 52.99 53.57 53.64 54.12 53.85 53.84 54.32 54.60 54.00 53.76 53.00 52.63 52.93 47.24 30.42 52.45 58.54 57.68 57.38 54.00 52.56 49.58 46.87 42.09 39.11 39.65 39.87 36.67 42.72 46.21 45.37 48.24 46.78 44.22 47.20 45.70 46.61 47.59 50.01 50.21 50.79 60.83 69.29
52.52 52.78 52.74 52.65 52.96 53.41 53.72 54.12 54.46 54.71 54.48 54.17 53.76 53.32 46.30 39.12 39.16 48.49 56.07 52.97 49.76 52.38 52.01 48.58 42.43 41.58 37.20 39.03 41.97 37.65 39.26 43.14 46.87 46.83 45.96 47.58 46.71 46.05 47.12 49.97 51.59 52.16 50.77 53.70 69.47
52.39 52.47 52.58 52.87 53.02 53.61 54.14 54.39 54.53 54.57 54.51 54.44 53.61 53.09 44.57 34.76 46.91 48.61 48.56 48.55 47.64 46.51 50.53 48.17 43.49 43.70 41.11 39.73 39.98 41.75 42.46 43.55 44.37 42.55 42.55 45.60 46.29 45.82 48.79 50.38 49.74 50.11 49.37 48.79 68.65
52.80 52.43 52.61 52.74 53.22 53.59 54.45 54.18 54.03 54.38 54.86 55.25 53.54 51.46 42.91 40.67 48.75 48.85 47.90 45.66 46.32 46.84 45.91 50.35 49.38 44.12 42.09 39.90 43.69 43.54 40.23 42.94 43.11 41.61 43.14 44.36 42.31 43.58 47.81 48.97 48.60 49.82 49.02 47.90 53.43
52.57 52.76 52.38 52.55 53.21 53.73 54.69 54.18 54.03 54.56 56.16 54.96 54.09 46.30 38.53 48.71 48.30 48.27 47.25 46.97 47.39 47.32 46.40 48.18 50.39 45.26 41.09 44.02 43.91 40.69 40.54 34.78 42.27 42.67 44.10 44.56 39.45 46.72 48.23 47.39 47.42 49.15 48.69 48.30 51.45
52.70 52.45 52.35 52.43 53.03 53.71 54.08 53.64 54.28 56.47 54.67 54.51 46.36 41.84 39.15 51.41 47.73 50.53 49.59 46.93 46.68 46.66 46.35 50.36 50.12 44.75 42.95 38.04 34.78 36.32 32.23 35.23 38.91 42.87 42.89 42.93 40.71 45.49 48.73 47.19 47.15 47.93 48.30 48.03 47.31
52.24 52.10 52.27 52.78 53.19 53.48 53.10 53.17 53.50 53.98 52.69 52.33 50.44 38.48 42.10 43.06 46.72 48.97 48.96 49.05 45.46 44.66 42.83 41.60 38.65 35.64 33.40 34.56 29.45 31.51 33.73 36.49 37.15 40.19 40.97 40.77 41.39 45.12 46.39 46.45 46.82 46.89 47.74 47.33 47.38
51.42 51.81 52.02 52.35 53.05 52.65 50.05 41.81 41.15 38.33 39.81 37.60 39.81 41.09 42.69 46.09 48.40 46.39 50.45 47.64 44.13 40.72 33.97 37.20 32.33 31.85 32.54 34.67 36.19 36.48 35.16 34.50 38.77 42.43 39.98 38.53 40.16 41.70 44.42 45.18 45.95 45.64 46.31 46.31 46.78
51.20 51.11 51.99 52.29 52.50 52.23 44.50 39.69 41.49 42.73 36.06 43.14 43.06 42.63 45.34 45.55 42.53 48.31 51.73 43.01 41.24 35.50 35.79 32.39 29.46 35.79 38.02 38.65 36.20 35.64 32.85 32.90 37.17 41.33 39.65 39.70 39.47 42.07 42.61 43.87 45.85 47.00 45.61 46.42 46.13
51.09 51.42 51.56 51.90 51.65 45.54 42.13 43.19 45.59 43.24 34.89 39.91 44.34 44.66 44.04 44.99 42.21 44.57 48.39 45.56 41.76 38.14 35.43 31.56 34.22 38.79 37.98 36.55 35.51 34.26 33.49 32.80 32.68 37.65 39.14 37.91 36.74 40.20 43.24 44.49 45.33 46.03 46.74 46.65 47.56
50.70 50.93 51.28 50.68 44.12 41.98 41.77 45.44 45.24 43.93 30.09 36.89 39.99 42.42 45.14 44.09 41.38 48.35 49.39 45.27 41.86 37.70 36.77 33.90 38.06 36.46 34.47 33.43 34.49 30.29 38.10 37.52 36.45 32.97 27.17 37.46 27.51 37.51 39.28 41.74 43.62 44.62 44.59 46.03 47.16
50.51 51.00 51.13 50.26 42.48 41.15 45.14 43.21 43.07 41.70 18.87 38.52 39.23 46.00 44.87 39.53 41.77 42.49 48.58 45.55 39.09 39.32 38.99 35.38 36.47 34.43 32.08 33.65 36.17 32.51 38.48 38.17 37.88 33.35 30.61 32.70 27.40 32.23 38.85 38.19 40.75 43.74 44.57 45.48 45.85
50.10 50.67 50.27 45.37 43.20 45.08 45.41 43.34 41.88 27.89 20.74 34.48 39.57 39.03 38.62 40.62 40.89 42.67 41.55 46.22 44.82 40.40 39.65 37.87 42.11 40.08 38.82 40.11 39.54 39.23 37.43 35.70 34.70 31.22 25.52 30.52 29.40 31.90 35.55 38.62 41.00 43.26 44.82 45.87 45.88
49.87 49.84 48.53 48.14 41.73 44.01 42.99 39.97 27.87 20.41 36.14 33.08 34.33 38.36 38.12 36.48 37.23 38.43 37.27 35.70 35.49 32.73 30.56 35.79 37.61 40.87 42.21 36.53 38.69 36.88 31.85 24.26 20.38 22.77 23.87 32.26 29.73 32.86 37.32 40.43 42.84 43.14 44.17 44.77 45.94
48.93 48.50 46.27 48.95 46.37 45.01 40.75 32.84 22.24 32.07 32.12 38.56 38.19 38.18 35.20 36.38 36.01 36.87 35.32 31.88 38.64 37.43 31.92 29.23 27.57 38.98 42.59 39.45 35.66 32.79 31.78 24.65 15.60 19.79 23.94 33.06 28.55 33.24 41.32 43.87 45.06 45.70 46.07 44.31 45.37
48.03 42.40 43.55 45.54 46.26 42.41 37.04 23.13 25.41 31.17 36.54 36.19 36.48 32.24 32.75 35.55 35.14 34.83 34.22 32.82 38.33 38.54 30.29 29.60 29.78 39.66 40.69 41.72 40.28 35.48 30.33 35.09 27.80 30.66 26.31 27.78 32.28 39.28 41.66 42.03 43.27 44.25 44.17 43.19 44.59
41.94 39.35 41.89 46.52 43.25 40.83 33.06 29.59 31.51 37.91 39.59 38.90 29.25 33.93 29.48 32.13 32.01 33.59 32.94 37.48 37.00 39.20 37.98 33.77 27.35 36.32 39.75 41.37 40.79 37.83 40.28 29.82 31.29 17.71 21.75 25.74 28.57 30.73 35.17 38.94 41.80 41.80 42.83 42.68 43.77
38.65 37.42 43.70 45.77 41.98 35.68 24.61 27.19 34.38 40.45 41.06 35.51 32.90 32.43 33.47 32.73 33.96 32.15 32.34 36.85 38.56 37.90 37.74 35.00 31.53 30.92 35.61 33.19 33.05 34.97 34.97 35.38 31.42 27.03 18.82 20.50 25.55 38.31 38.66 38.47 39.10 42.19 42.41 44.52 44.28
40.66 30.82 43.70 42.27 31.31 29.78 27.12 32.77 38.97 38.66 39.74 37.92 37.79 36.54 34.80 35.86 34.09 31.54 31.80 35.62 40.38 39.46 35.06 37.44 34.50 28.26 29.59 36.69 40.13 38.07 36.81 36.08 30.71 25.36 27.50 25.44 27.38 39.28 38.87 41.39 42.26 41.98 43.24 47.55 47.00
37.83 37.52 43.04 39.81 26.28 27.00 31.20 33.24 36.04 36.32 36.05 36.10 34.36 38.43 38.50 35.97 30.94 34.78 34.99 39.67 40.57 38.85 36.47 36.19 29.91 25.39 23.68 34.11 39.33 34.59 37.51 37.07 35.18 35.09 29.31 24.19 26.90 40.43 40.21 41.66 42.32 42.27 44.73 50.85 50.37
38.05 29.75 33.08 33.27 32.99 29.05 30.66 30.68 32.02 38.35 36.32 37.09 35.86 38.76 36.88 34.21 35.69 34.21 35.03 38.56 40.82 39.99 43.98 41.87 34.17 29.73 21.50 23.46 31.35 30.23 33.54 35.89 35.26 30.01 29.72 30.80 32.14 37.39 40.63 40.74 41.65 43.38 45.72 52.93 56.37
33.76 29.30 32.06 25.60 29.12 31.15 29.91 31.57 30.93 30.56 36.13 35.76 35.98 35.51 33.15 30.22 32.01 33.76 35.84 37.50 39.77 41.31 40.31 37.19 31.44 32.29 33.61 34.40 34.26 33.66 33.30 34.36 33.32 34.83 32.56 34.27 34.19 37.82 41.13 43.13 44.46 45.57 48.35 55.22 58.15
30.81 31.85 33.19 31.31 32.70 30.67 30.12 28.73 30.70 33.16 33.02 31.64 33.18 34.06 34.37 31.99 33.36 32.42 35.28 35.31 35.41 37.97 35.85 36.86 30.18 31.67 29.38 33.16 32.78 30.90 33.52 34.31 34.87 35.77 36.37 37.52 35.47 41.57 45.27 45.99 44.40 45.51 48.89 56.06 59.43
35.52 35.54 36.18 32.80 30.41 31.10 29.92 31.74 32.00 34.59 35.24 36.99 35.21 33.45 33.22 35.84 38.43 38.67 38.87 38.74 38.26 36.98 35.48 34.81 33.03 29.63 26.23 32.57 32.23 28.69 33.88 36.32 37.62 38.78 38.22 34.81 38.01 43.55 41.86 42.87 42.35 44.38 48.55 55.04 58.42
MSLP
1020.74 1020.23 1019.77 1019.29 1018.82 1018.33 1017.76 1017.21 1016.78 1016.41 1016.05 1015.72 1015.34 1014.99 1014.56 1013.98 1013.48 1013.38 1012.80 1010.24 1010.02 1009.49 1009.35 1008.92 1008.77 1009.27 1009.58 1009.66 1009.32 1009.44 1009.97 1008.89 1007.43 1006.41 1004.73 1003.74 1003.68 1002.94 1002.20 1002.08 1001.84 1001.64 1001.35 999.89 1000.41
1020.52 1019.96 1019.47 1018.98 1018.48 1017.94 1017.49 1017.05 1016.58 1016.15 1015.76 1015.34 1015.03 1014.77 1014.42 1013.85 1013.44 1012.32 1010.07 1009.67 1009.44 1009.47 1009.59 1009.19 1008.90 1009.11 1009.61 1009.57 1009.32 1009.04 1008.64 1006.97 1005.88 1004.82 1004.36 1004.39 1003.96 1003.33 1002.68 1002.10 1001.53 1001.29 1000.50 1000.01 1000.47
1020.36 1019.78 1019.19 1018.60 1018.01 1017.48 1017.01 1016.50 1016.03 1015.71 1015.31 1015.07 1014.86 1014.57 1014.06 1013.61 1012.97 1010.18 1008.90 1009.22 1009.11 1009.21 1009.55 1009.35 1009.09 1008.99 1009.47 1009.26 1008.77 1008.19 1006.45 1006.09 1004.82 1004.59 1004.39 1004.08 1003.80 1003.20 1002.63 1001.86 1001.55 1001.33 1001.23 1001.53 1000.48
1020.33 1019.62 1018.90 1018.09 1017.27 1016.52 1015.99 1015.78 1015.46 1015.31 1015.02 1014.68 1014.47 1014.21 1013.84 1013.82 1012.39 1009.32 1009.01 1008.80 1008.81 1008.47 1009.15 1009.38 1009.27 1009.22 1009.25 1008.69 1008.37 1007.83 1006.25 1005.49 1004.66 1004.56 1004.28 1004.03 1003.49 1002.71 1002.26 1001.44 1001.10 1001.17 1001.42 1001.69 1002.14
1020.70 1020.01 1019.30 1018.41 1017.63 1016.72 1015.91 1015.14 1014.36 1014.09 1014.50 1014.21 1014.11 1014.02 1014.17 1013.94 1012.13 1009.58 1009.10 1008.93 1008.74 1008.48 1008.72 1008.94 1009.19 1009.08 1008.52 1008.08 1007.88 1007.12 1006.16 1005.17 1004.79 1004.59 1004.02 1004.06 1003.36 1003.09 1001.39 1001.31 1000.82 1000.80 1001.16 1001.00 1001.31
1020.74 1020.03 1019.33 1018.50 1017.63 1016.78 1015.95 1015.04 1014.32 1013.88 1013.78 1013.68 1013.65 1013.79 1013.84 1012.81 1009.77 1009.34 1009.19 1008.76 1008.66 1008.38 1008.19 1008.38 1008.08 1008.09 1008.36 1007.81 1007.42 1006.21 1005.74 1005.24 1004.74 1004.32 1004.14 1004.13 1003.23 1003.04 999.50 1000.74 1000.46 1000.62 1000.77 1000.62 1000.64
1020.54 1019.89 1019.15 1018.36 1017.43 1016.53 1015.46 1014.62 1013.87 1013.55 1013.28 1013.27 1013.41 1013.68 1013.41 1010.67 1009.10 1009.05 1009.24 1008.70 1008.22 1008.42 1008.22 1007.85 1007.79 1007.85 1007.50 1007.83 1006.72 1006.20 1005.88 1005.15 1004.36 1004.11 1003.80 1004.00 1002.73 1000.16 1000.71 1000.85 1000.33 1000.26 1000.63 1000.66 1000.61
1020.41 1019.63 1018.88 1018.03 1017.20 1016.12 1015.01 1014.07 1013.45 1013.02 1012.78 1012.92 1013.32 1013.64 1012.23 1009.30 1008.96 1009.02 1008.47 1007.83 1007.53 1007.58 1007.95 1007.10 1007.37 1007.76 1007.67 1007.21 1006.72 1006.44 1005.98 1005.17 1003.36 1003.63 1003.57 1003.46 1000.49 999.64 1000.08 1000.54 1000.45 1000.02 1000.30 1000.66 1000.74
1020.10 1019.31 1018.48 1017.56 1016.68 1015.61 1014.44 1013.36 1012.91 1012.53 1012.77 1013.03 1013.52 1013.45 1010.83 1008.86 1008.87 1007.46 1007.50 1007.52 1006.97 1006.71 1006.53 1006.41 1006.86 1007.49 1007.61 1007.79 1007.76 1006.60 1005.78 1004.96 1004.36 1003.02 1003.08 1002.73 999.82 999.83 999.93 1000.12 999.98 999.86 999.86 1000.49 1000.60
1020.02 1019.14 1018.22 1017.25 1016.30 1015.44 1014.06 1013.00 1012.83 1012.91 1013.13 1013.11 1013.00 1013.24 1010.29 1008.89 1007.81 1007.12 1006.48 1006.67 1006.78 1006.64 1006.35 1006.34 1006.88 1007.26 1007.73 1007.78 1007.02 1006.61 1006.34 1005.29 1004.36 1003.46 1002.90 1002.37 1000.40 1000.46 1000.07 1000.04 999.71 999.79 999.58 1000.13 1000.34
1019.96 1019.01 1018.09 1017.18 1016.25 1015.63 1014.83 1013.48 1013.54 1013.30 1013.07 1012.89 1012.28 1012.21 1010.45 1008.59 1007.55 1007.05 1006.19 1006.25 1006.36 1006.77 1006.97 1006.74 1007.08 1007.47 1007.30 1007.26 1007.00 1006.71 1006.25 1005.91 1005.23 1004.28 1003.78 1002.59 1001.35 1000.80 1000.36 999.59 999.69 999.59 999.88 999.99 1000.09
1019.78 1018.98 1017.90 1017.03 1016.16 1015.47 1015.29 1014.94 1014.43 1014.44 1013.47 1011.70 1011.03 1011.03 1009.85 1008.49 1007.74 1006.75 1006.19 1006.71 1006.76 1006.79 1006.90 1007.15 1006.72 1005.93 1006.25 1006.53 1006.61 1006.60 1006.28 1005.66 1005.38 1004.67 1004.05 1003.09 1001.56 1000.94 1000.55 999.56 998.97 999.01 999.68 999.84 1000.07
1019.68 1018.51 1017.87 1016.61 1015.82 1015.28 1015.29 1014.33 1013.67 1014.06 1014.15 1011.76 1010.53 1009.78 1008.96 1008.43 1007.86 1006.99 1006.92 1006.82 1006.72 1006.60 1006.73 1006.81 1006.02 1006.09 1005.95 1005.76 1006.13 1006.17 1005.88 1005.75 1005.90 1005.29 1004.07 1004.06 1001.99 1000.50 1000.06 999.34 998.68 998.40 998.94 999.13 999.03
1019.17 1018.46 1017.48 1016.62 1015.75 1015.72 1014.70 1013.43 1013.49 1013.86 1013.85 1011.62 1009.94 1008.93 1008.67 1008.52 1007.89 1007.26 1007.11 1007.20 1006.77 1006.64 1006.61 1006.28 1005.56 1005.45 1005.35 1005.25 1005.30 1005.64 1005.59 1005.79 1005.98 1005.80 1005.03 1004.41 1002.38 1000.04 999.83 999.12 998.57 997.94 998.21 998.65 998.57
1018.75 1017.77 1017.21 1016.78 1016.24 1015.56 1013.59 1013.44 1013.40 1013.98 1013.48 1011.08 1009.64 1008.61 1008.86 1009.30 1008.42 1007.31 1007.11 1006.66 1006.65 1006.81 1007.17 1006.18 1005.48 1005.23 1005.07 1004.63 1004.79 1004.91 1005.31 1005.85 1006.17 1006.10 1005.96 1005.47 1004.66 1000.30 999.51 999.15 998.29 997.70 997.48 998.16 998.55
1018.29 1016.99 1016.69 1016.32 1016.32 1014.11 1013.36 1013.30 1013.50 1014.36 1012.80 1011.04 1009.89 1009.46 1009.13 1009.08 1008.71 1007.78 1007.49 1007.26 1006.94 1007.07 1006.70 1005.86 1005.22 1004.81 1004.24 1004.16 1004.34 1004.56 1005.22 1006.03 1006.35 1006.77 1006.01 1005.45 1004.80 999.17 999.56 998.62 997.97 997.53 997.26 997.78 998.06
1017.49 1016.24 1015.82 1015.77 1014.56 1013.58 1013.33 1013.76 1014.52 1014.01 1012.91 1011.87 1010.81 1010.36 1009.95 1009.37 1009.04 1008.56 1008.16 1008.15 1008.26 1008.10 1007.40 1006.14 1004.93 1004.08 1003.91 1004.18 1004.32 1004.87 1005.69 1006.84 1007.14 1006.99 1005.13 1004.90 1004.18 1000.01 998.64 998.32 997.77 997.46 997.68 997.90 997.84
1017.19 1015.82 1015.43 1014.46 1013.69 1013.90 1014.10 1014.50 1014.82 1014.07 1013.28 1012.57 1011.80 1011.03 1010.44 1009.99 1009.89 1009.14 1008.96 1009.04 1009.21 1009.15 1008.53 1007.50 1005.66 1004.31 1003.92 1003.65 1004.05 1004.72 1005.62 1006.35 1006.55 1006.25 1004.83 1004.02 1002.55 998.86 998.32 998.32 998.09 997.60 997.37 997.93 997.94
1017.16 1015.94 1015.34 1014.00 1013.68 1013.93 1015.05 1015.71 1015.28 1014.54 1013.63 1012.70 1011.84 1011.22 1011.02 1011.09 1011.21 1010.26 1009.56 1009.38 1009.31 1009.34 1009.37 1008.30 1006.23 1004.52 1004.06 1003.79 1004.08 1004.32 1004.88 1005.08 1006.18 1006.11 1005.46 1003.61 1001.59 999.04 998.15 997.90 997.61 997.41 997.55 997.75 997.70
1018.41 1017.54 1015.67 1013.85 1013.53 1014.20 1015.69 1016.17 1015.32 1014.41 1013.78 1013.07 1012.69 1012.27 1011.76 1011.46 1011.65 1011.14 1010.04 1009.13 1009.25 1009.29 1009.37 1008.68 1006.78 1004.96 1004.02 1003.43 1003.31 1003.70 1004.24 1005.42 1006.00 1005.92 1005.29 1003.43 1001.86 999.22 997.72 997.59 997.46 997.81 997.68 997.98 997.52
1018.85 1017.77 1015.19 1013.99 1013.92 1015.48 1017.06 1017.07 1015.68 1014.51 1014.20 1013.51 1013.00 1012.87 1012.88 1012.52 1012.01 1011.48 1010.28 1009.32 1009.71 1009.47 1009.66 1008.98 1008.07 1006.00 1005.15 1003.99 1003.50 1004.00 1004.35 1004.97 1005.02 1005.18 1004.39 1003.40 1001.24 998.35 997.48 997.54 997.61 997.56 997.87 997.71 997.38
1020.11 1018.88 1016.12 1014.62 1016.36 1018.16 1018.47 1017.91 1016.39 1014.79 1014.29 1013.58 1013.21 1013.07 1013.32 1012.83 1012.22 1011.65 1010.38 1009.94 1009.25 1009.70 1009.43 1009.12 1008.21 1006.90 1005.43 1004.03 1003.60 1003.59 1003.81 1004.40 1004.67 1004.84 1003.86 1002.70 999.93 997.89 997.52 997.67 997.84 997.76 997.56 997.00 996.31
1020.96 1019.78 1017.18 1016.45 1019.11 1020.09 1019.43 1018.23 1017.14 1015.62 1014.84 1014.28 1013.93 1013.61 1013.60 1013.08 1012.48 1011.29 1010.41 1009.18 1009.10 1009.23 1009.32 1009.12 1008.46 1007.35 1005.47 1004.44 1003.74 1003.70 1003.75 1004.27 1004.48 1004.32 1003.09 1002.13 999.12 997.56 997.29 997.47 997.81 997.59 997.13 996.31 995.57
1021.53 1020.94 1019.69 1019.67 1020.32 1020.57 1020.03 1018.58 1017.43 1016.26 1015.20 1014.80 1014.15 1013.71 1013.62 1012.98 1012.41 1011.03 1010.08 1009.19 1008.76 1008.73 1008.42 1008.25 1007.64 1007.29 1006.36 1004.88 1004.29 1003.71 1003.51 1003.53 1003.90 1003.51 1002.00 1000.04 999.27 998.13 997.85 997.86 998.02 997.78 996.92 996.17 995.35
1022.34 1022.53 1022.16 1021.61 1020.86 1020.48 1020.00 1019.10 1017.90 1016.98 1015.98 1015.32 1014.42 1014.04 1013.82 1012.60 1011.39 1010.27 1009.73 1009.01 1008.34 1007.75 1007.44 1007.86 1007.32 1006.79 1005.87 1004.87 1004.11 1003.14 1002.31 1002.15 1002.15 1001.82 1001.01 999.59 999.10 997.93 997.67 997.94 997.75 997.49 996.68 995.96 995.48
1023.30 1023.17 1022.76 1022.23 1021.10 1020.35 1019.77 1019.19 1018.31 1017.57 1017.40 1015.50 1014.94 1014.11 1013.45 1012.53 1011.63 1009.66 1009.42 1008.66 1008.13 1007.62 1007.62 1007.60 1007.16 1006.44 1005.08 1003.72 1002.87 1002.12 1001.18 1000.47 1000.01 999.65 999.52 998.97 997.70 996.89 996.73 997.42 997.63 997.10 996.26 995.50 995.25
1023.53 1023.25 1022.91 1021.77 1021.39 1020.52 1019.68 1019.05 1018.36 1017.86 1016.12 1015.55 1015.28 1014.26 1012.28 1011.10 1010.35 1008.95 1008.29 1007.77 1007.85 1007.70 1007.71 1007.65 1007.17 1006.50 1004.42 1003.35 1002.08 1000.60 998.86 998.55 998.00 997.70 997.47 997.43 996.62 996.47 996.96 997.03 997.01 996.81 996.35 995.90 995.50
Wind_Speed
21 21 21 21 20 21 21 22 20 19 17 17 18 18 19 21 20 6 9 14 11 17 12 4 3 5 4 5 4 5 3 7 8 10 14 2 4 3 2 5 2 6 4 13 22
23 23 23 23 23 23 22 20 18 17 17 18 16 16 17 18 15 11 14 11 13 14 1 4 6 7 4 5 5 6 6 13 8 17 4 5 4 1 4 6 6 7 10 15 23
26 26 27 27 26 25 23 21 20 18 16 15 13 13 15 11 5 6 2 7 8 12 8 3 3 6 4 4 7 6 16 15 5 7 8 4 7 5 3 9 9 6 9 2 22
28 29 30 29 30 29 28 25 22 17 15 12 10 10 10 2 6 1 15 17 16 11 9 5 4 5 7 11 5 6 11 19 5 14 6 3 5 3 9 13 6 6 1 4 13
26 27 27 27 28 28 29 29 29 25 17 13 8 7 3 4 11 10 16 12 14 3 11 11 7 5 8 6 8 7 3 7 19 11 8 9 14 7 19 11 13 14 6 11 19
25 27 27 26 26 26 25 25 25 24 21 14 7 3 2 4 8 9 9 12 4 4 6 9 9 9 5 4 10 4 10 19 14 9 5 14 17 7 26 11 12 7 9 7 18
25 27 27 26 26 26 25 24 24 21 18 10 4 4 1 11 3 4 6 5 4 4 5 10 15 4 5 5 7 8 11 12 13 4 8 5 19 31 15 15 16 12 7 6 10
26 26 27 26 25 26 25 25 22 17 9 2 6 2 9 6 5 9 4 7 8 8 9 13 9 11 3 6 6 3 3 4 9 11 8 13 28 15 12 10 12 14 7 7 8
26 27 28 28 27 26 26 25 12 5 8 10 4 3 11 2 3 8 9 6 4 6 6 9 5 7 3 5 5 4 6 7 6 4 7 16 21 4 8 9 11 11 8 7 7
27 27 27 28 28 26 28 20 4 9 3 4 3 1 4 9 7 10 6 9 8 6 5 3 1 5 2 7 11 5 4 2 4 2 6 13 23 12 10 7 12 9 10 7 10
28 27 27 27 27 26 15 6 7 6 2 4 12 5 11 10 7 5 8 3 2 1 3 4 4 7 11 5 4 10 12 7 6 10 9 6 14 9 7 11 11 9 8 7 10
30 28 28 27 26 25 1 4 3 6 9 6 11 9 11 6 6 8 7 5 3 7 4 1 10 15 8 7 7 9 10 13 5 6 6 10 17 9 4 9 10 14 9 10 7
27 29 26 29 29 3 2 5 4 3 2 10 6 4 7 6 5 10 7 8 11 13 7 10 9 3 8 8 11 9 13 8 6 7 15 9 19 14 6 10 8 8 7 9 14
29 27 27 28 3 4 5 3 2 4 3 7 3 3 8 10 4 10 3 6 4 7 5 7 5 11 12 8 8 6 4 1 5 5 5 2 9 13 7 10 8 10 7 11 13
31 31 27 15 4 3 7 5 3 4 4 6 1 2 8 2 9 5 3 5 6 9 3 7 4 3 8 13 9 9 7 6 4 7 3 6 5 5 8 7 11 10 9 7 9
31 33 28 2 1 9 7 7 4 8 6 6 5 20 12 13 5 8 5 1 4 4 6 12 4 5 7 5 6 5 5 2 4 3 9 7 7 17 11 12 8 7 8 4 8
36 34 15 3 6 2 4 5 5 4 6 7 15 16 17 10 12 7 12 8 4 6 7 10 3 4 7 4 3 5 7 2 2 4 11 9 10 22 3 5 12 11 7 2 9
36 28 4 6 4 6 5 6 3 1 5 10 13 18 7 13 7 13 6 3 3 2 5 5 6 1 1 4 6 7 9 6 7 6 12 9 9 21 12 15 18 18 17 5 8
30 6 5 4 3 3 6 5 4 3 8 8 11 7 4 15 9 6 6 3 3 5 3 4 6 6 10 10 4 4 6 10 4 5 3 4 3 25 21 16 14 18 11 7 10
7 5 5 9 2 5 6 3 3 3 8 7 5 5 17 15 7 6 4 5 1 2 4 6 12 7 4 3 5 13 4 3 3 5 7 6 5 13 5 19 22 13 7 5 9
4 5 5 11 4 7 4 4 6 5 12 6 10 7 8 10 4 3 6 7 6 5 5 5 6 6 8 4 5 2 5 6 4 5 6 3 6 18 18 9 11 15 4 8 8
5 4 7 7 7 3 3 8 9 6 9 9 8 4 5 7 6 6 7 5 5 5 7 2 5 6 10 11 5 3 3 2 4 5 5 3 13 5 3 6 5 7 6 8 8
6 5 5 6 5 4 7 8 6 9 10 4 6 2 6 4 8 7 7 5 10 5 3 2 4 6 10 2 3 3 4 7 3 3 8 7 6 4 6 7 7 6 8 8 7
3 5 6 6 2 2 6 7 5 7 12 11 11 5 7 13 11 7 11 8 3 13 21 14 6 8 10 9 3 11 12 11 7 5 7 15 9 7 5 1 6 6 8 7 10
4 1 0 6 4 8 2 5 9 9 4 11 5 8 17 8 18 6 9 12 12 16 1 3 5 9 16 21 21 22 23 19 19 15 12 9 20 20 13 6 5 5 8 8 10
3 4 4 5 8 5 3 4 8 11 8 14 6 20 21 11 15 24 20 16 6 4 2 2 5 4 15 20 19 22 21 20 22 21 20 19 19 16 7 7 6 2 6 11 14
3 3 1 5 4 7 4 11 18 15 10 8 17 23 20 17 19 27 22 19 13 4 3 3 3 3 6 8 13 11 13 16 14 13 16 15 15 6 5 6 3 4 0 9 16
Wind_Direction
350 347 344 341 338 336 334 332 331 327 325 324 325 325 325 318 311 294 237 226 198 253 291 318 133 161 137 207 204 141 180 221 222 198 221 86 205 285 238 226 327 202 232 234 131
348 346 344 341 338 335 331 328 322 318 318 319 320 320 318 312 301 265 252 249 247 278 204 207 170 141 180 202 214 177 194 215 210 234 270 246 266 302 304 308 293 302 347 143 139
347 345 343 340 336 333 330 325 320 323 323 322 318 316 313 324 307 245 256 23 251 245 237 225 284 160 203 176 202 208 233 228 220 230 243 215 273 205 252 278 234 261 20 228 154
344 343 342 339 335 333 330 327 322 323 321 312 305 307 311 336 305 276 342 343 342 315 193 239 208 189 193 210 219 241 232 239 253 254 277 269 269 211 214 243 243 262 226 220 211
339 338 338 335 332 328 325 322 319 319 324 318 294 287 59 11 256 281 320 318 327 282 196 202 201 175 188 208 222 240 266 249 241 252 246 289 265 264 264 266 283 283 269 233 196
337 337 338 335 331 326 319 313 310 314 319 316 295 275 183 310 223 246 278 309 264 291 213 190 205 200 269 241 196 245 213 250 266 248 240 245 270 266 259 248 251 246 254 242 188
336 337 339 336 331 325 315 311 308 313 316 310 244 195 181 237 219 279 295 236 203 261 295 220 231 230 190 288 257 267 281 275 241 216 240 199 270 242 265 273 285 275 258 212 198
338 338 338 336 332 324 317 313 312 312 329 105 166 132 247 251 291 293 202 277 233 222 233 256 212 230 197 304 318 302 245 218 265 184 216 161 258 271 225 202 239 253 227 196 196
339 338 338 335 334 329 323 317 323 71 105 133 103 116 281 298 281 249 182 245 278 245 222 250 199 210 237 222 319 236 243 226 293 211 201 193 251 195 181 194 226 240 229 179 185
340 339 337 334 332 331 325 319 328 97 139 199 226 330 290 313 298 299 238 235 248 305 339 150 141 185 268 185 224 219 258 235 208 294 201 225 256 267 284 224 227 228 247 175 183
340 340 337 333 330 330 336 6 10 347 44 233 269 252 278 272 286 292 309 320 284 147 225 258 163 226 234 231 243 294 288 274 304 320 337 262 272 267 247 263 236 236 231 198 197
336 339 337 333 328 322 342 62 270 227 311 302 255 239 265 254 300 325 8 339 253 240 222 282 224 228 182 205 234 247 265 277 288 265 295 300 289 283 268 256 243 232 193 214 171
335 333 338 331 323 6 264 227 259 124 309 295 252 262 321 324 291 316 8 307 294 279 230 215 249 263 221 215 237 237 245 256 258 283 277 277 283 268 241 237 274 255 194 190 202
331 331 333 335 349 313 282 183 142 147 43 282 315 288 1 321 345 316 339 284 306 300 284 237 247 234 219 220 195 221 239 296 307 272 258 48 281 261 177 229 234 261 228 199 207
330 328 331 324 262 313 253 6 349 71 347 312 210 254 330 359 281 297 287 298 270 266 282 256 293 221 220 222 225 237 215 229 265 262 12 294 277 255 161 232 250 247 254 216 192
331 326 332 50 219 243 334 317 77 46 268 331 353 324 323 320 286 295 311 267 268 289 249 253 275 206 221 193 207 213 162 142 180 130 246 199 206 268 219 228 272 261 249 228 209
330 327 327 189 238 54 327 39 30 128 2 317 317 322 312 302 317 319 321 341 358 339 350 313 251 250 184 176 173 82 107 261 278 194 248 160 213 250 280 251 233 277 290 289 207
330 323 265 235 313 359 37 35 77 34 288 323 319 310 300 348 325 324 303 323 61 332 292 328 331 345 49 186 205 186 159 179 198 225 252 185 213 250 244 268 262 277 277 284 221
329 329 318 276 256 114 67 41 233 332 323 309 314 304 281 323 333 320 296 240 153 209 12 315 258 324 278 263 184 236 195 205 272 212 302 254 270 251 246 259 268 259 289 289 233
327 335 292 322 20 67 77 244 269 293 313 313 309 312 318 322 315 338 296 252 349 49 63 269 289 262 306 313 212 200 149 94 169 200 237 244 210 241 181 230 242 261 280 325 271
21 1 289 341 59 46 110 253 288 301 338 322 292 300 290 309 268 269 257 305 13 343 337 273 227 290 349 237 195 124 208 212 183 164 179 223 231 231 234 228 236 237 245 252 260
351 346 327 0 51 23 9 312 299 302 333 301 329 320 260 287 274 271 245 265 30 331 319 280 292 273 240 245 278 264 210 222 214 229 240 187 248 264 85 156 200 237 262 253 237
333 287 326 51 66 349 317 303 281 325 317 327 286 302 294 295 301 247 269 263 296 254 257 251 257 307 319 351 68 185 214 198 266 284 219 199 262 218 245 166 257 249 310 271 232
352 347 334 34 97 155 320 311 314 311 300 343 282 307 320 293 278 272 268 287 252 268 267 266 229 212 233 234 294 276 246 239 233 258 244 228 248 238 232 301 302 301 312 248 187
24 317 246 326 326 316 281 282 330 340 300 313 295 295 316 289 302 249 270 273 283 288 262 168 270 244 259 261 268 266 268 265 251 243 251 272 244 239 245 196 234 257 278 204 186
43 11 355 280 279 303 307 281 315 323 312 300 273 311 307 285 276 296 300 292 268 283 211 187 268 284 274 266 258 260 260 256 251 244 233 254 253 226 168 162 197 259 325 191 167
301 316 152 279 300 306 311 323 311 333 297 265 305 306 301 295 310 291 280 274 251 249 207 236 261 292 263 299 288 259 252 242 242 230 210 215 235 164 195 179 195 177 156 214 149